This is the latest recevied weather packets stored in our database for station/object KB1RMA-4. If no packets are shown the sender has not sent any weather packets the latest 10 day(s).
| Time | Temp. | Humidity | Pressure | Rain* | Wind** | Luminosity | Snow |
|---|---|---|---|---|---|---|---|
| 1787774282 | 26.67° C | 53% | 1017.5 hPa | 0 mm | - | 432 W/m² | - |
| 1787773982 | 26.67° C | 55% | 1017.2 hPa | 0 mm | - | 456 W/m² | - |
| 1787773680 | 26.67° C | 55% | 1017.4 hPa | 0 mm | - | 478 W/m² | - |
| 1787773376 | 26.67° C | 54% | 1017.4 hPa | 0 mm | - | 497 W/m² | - |
| 1787773072 | 26.67° C | 53% | 1017.3 hPa | 0 mm | - | 512 W/m² | - |
| 1787772768 | 26.67° C | 54% | 1017.3 hPa | 0 mm | - | 523 W/m² | - |
| 1787772466 | 27.22° C | 53% | 1017.3 hPa | 0 mm | - | 553 W/m² | - |
| 1787772166 | 26.67° C | 54% | 1017.2 hPa | 0 mm | - | 552 W/m² | - |
| 1787771865 | 27.22° C | 52% | 1017.4 hPa | 0 mm | - | 566 W/m² | - |
| 1787771564 | 26.67° C | 53% | 1017.4 hPa | 0 mm | - | 572 W/m² | - |
| 1787771259 | 26.67° C | 54% | 1017.6 hPa | 0 mm | - | 557 W/m² | - |
| 1787770954 | 26.67° C | 54% | 1017.4 hPa | 0 mm | - | 543 W/m² | - |
| 1787770653 | 26.67° C | 53% | 1017.4 hPa | 0 mm | - | 579 W/m² | - |
| 1787770347 | 27.22° C | 52% | 1017.5 hPa | 0 mm | - | 590 W/m² | - |
| 1787770047 | 27.22° C | 52% | 1017.6 hPa | 0 mm | - | 582 W/m² | - |
| 1787769742 | 27.22° C | 50% | 1017.7 hPa | 0 mm | - | 600 W/m² | - |
| 1787769440 | 26.67° C | 52% | 1017.8 hPa | 0 mm | - | 619 W/m² | - |
| 1787769135 | 27.22° C | 50% | 1017.5 hPa | 0 mm | - | 620 W/m² | - |
| 1787768829 | 26.67° C | 50% | 1017.5 hPa | 0 mm | - | 627 W/m² | - |
| 1787768526 | 26.67° C | 53% | 1017.5 hPa | 0 mm | - | 650 W/m² | - |
| 1787768221 | 27.22° C | 49% | 1017.7 hPa | 0 mm | - | 641 W/m² | - |
| 1787767917 | 26.67° C | 49% | 1017.7 hPa | 0 mm | - | 638 W/m² | - |
| 1787767612 | 26.67° C | 50% | 1017.5 hPa | 0 mm | - | 653 W/m² | - |
| 1787767311 | 26.67° C | 49% | 1017.8 hPa | 0 mm | - | 704 W/m² | - |
| 1787767010 | 27.22° C | 51% | 1017.7 hPa | 0 mm | - | 685 W/m² | - |
* Rain latest hour (hover to see other rain measurements)
** Current wind speed in m/s (hover to see current wind gust speed)